Location: McFarlands Corners
(41.4117°N, 81.3382°W)
Time: 03:53:46
(UTC+00:00)

Transit 4A - Pass Details

Date: 21 February 2026
Orbit: 864 x 977 km, 66.8° (Epoch: 7 March)

Event Time Altitude Azimuth Distance (km) Brightness Sun altitude
Rises 07:43:05 0° 191° (SSW) 3,438 - -48.8°
Reaches altitude 10° 07:45:35 10° 186° (S) 2,513 - -48.5°
Maximum altitude 07:51:10 50° 113° (ESE) 1,121 - -47.6°
Exits shadow 07:56:18 13° 41° (NE) 2,377 10.5 -46.9°
Drops below altitude 10° 07:56:54 10° 40° (NE) 2,590 10.7 -46.8°
Sets 07:59:31 0° 35° (NE) 3,553 11.6 -46.4°
